[[{"header":{"parameterUnit":"m.s-1","parameterCategory":2,"la1":30.2991,"la2":30.254,"lo1":-89.0895,"lo2":-89.0444,"dy":0.0017,"dx":0.0017,"nx":28,"ny":28,"refTime":"2026-02-24T09:00:00:Z","depth":"0","parameterNumber":2,"parameterNumberName":"U-component_of_CURRENTS"},"data":[0,0,0,0,0,0,0,0,0,0,0,0,0,0,0,0,0,0,0,0,0,0,0,0,0,0,0,0,0,0,0,0,0,0,0,0,0,0,0,0,0,0,0,0,0,0,0,0,0,0,0,0,0,0,0,0,0,0,0.2255,0.2256,0,0.2337,0.2338,0.2338,0.2349,0.2349,0.2348,0.2348,0.2362,0.2363,0.2363,0,0,0,0,0,0,0,0,0,0,0,0,0,0.2121,0.2123,0.2255,0.2256,0.2258,0.2337,0.2338,0.2338,0.2349,0.2349,0.2348,0.2348,0.2362,0.2363,0.2364,0,0,0,0,0,0,0,0,0,0,0,0,0,0.2186,0.2124,0.2255,0.2275,0.2278,0.2337,0.2338,0.2339,0.235,0.2349,0.2348,0.2347,0.2361,0.2362,0.2364,0.2385,0,0,0.2367,0.2368,0,0,0,0,0,0,0,0,0.2182,0.219,0.2271,0.2274,0.2277,0.2335,0.2296,0.2352,0.235,0.2319,0.2348,0.2347,0.2349,0.2352,0.2365,0.2386,0.2386,0.2367,0.2368,0.2369,0.2369,0,0,0,0,0,0,0,0.2178,0.2187,0.2284,0.2272,0.2276,0.2285,0.2293,0.2307,0.2333,0.2322,0.2323,0.2338,0.235,0.2364,0.2365,0.2387,0.2367,0.2368,0.2369,0.237,0.2435,0.2436,0,0,0,0,0,0,0.2175,0.2183,0.2282,0.2287,0.2231,0.2288,0.2297,0.2315,0.2335,0.2339,0.2339,0.2338,0.2362,0.2364,0.2365,0.2405,0.2369,0.237,0.2371,0.2434,0.2435,0.2436,0,0,0,0,0,0,0.2172,0.2183,0.2278,0.2239,0.2252,0.2291,0.2311,0.2317,0.2333,0.2349,0.2351,0.235,0.2361,0.2364,0.2386,0.2405,0.237,0.2371,0.2433,0.2434,0.2436,0.2476,0,0,0,0,0,0,0.2167,0.2181,0.2189,0.2239,0.2254,0.2318,0.2312,0.2319,0.2345,0.2345,0.2359,0.236,0.2361,0.2384,0.2387,0.2406,0.2372,0.2431,0.2433,0.2435,0.2473,0.2478,0.2483,0,0,0,0,0,0.2162,0.2181,0.2189,0.2201,0.2265,0.2319,0.2328,0.2351,0.2346,0.236,0.2369,0.2359,0.2398,0.2386,0.2389,0.2409,0.243,0.2433,0.2435,0.2471,0.2477,0.2483,0,0,0,0,0,0,0.2124,0.2186,0.2195,0.223,0.2272,0.2322,0.2342,0.2354,0.2375,0.2373,0.2375,0.2378,0.2404,0.2402,0.2389,0.2433,0.2412,0.2415,0.2438,0.2444,0.2449,0.244,0.2373,0,0,0,0,0,0.2121,0.2153,0.2208,0.2235,0.2259,0.2299,0.2322,0.2341,0.237,0.2378,0.2388,0.2399,0.2417,0.2426,0.2439,0.2465,0.2463,0.2479,0.2484,0.2488,0.2484,0.2502,0.2508,0.2444,0.2444,0.2444,0,0,0.2112,0.2152,0.2168,0.223,0.2264,0.2304,0.2311,0.2354,0.238,0.2376,0.2406,0.2417,0.2428,0.2459,0.247,0.2458,0.2509,0.2491,0.2494,0.2487,0.2505,0.2512,0.2517,0.2445,0.2445,0.2445,0,0,0.2122,0.2151,0.2182,0.2221,0.2281,0.2311,0.2324,0.2376,0.2392,0.2427,0.2431,0.2453,0.2477,0.2494,0.2504,0.2543,0.2534,0.2548,0.2567,0.2586,0.2591,0.2595,0.2612,0.2618,0.255,0.255,0.255,0,0.2107,0.2156,0.2198,0.2241,0.2272,0.2313,0.2349,0.238,0.2428,0.2443,0.2437,0.2485,0.2494,0.2535,0.2549,0.2554,0.2561,0.2544,0.2592,0.2596,0.26,0.2616,0.2622,0.2552,0.2552,0.2552,0.2552,0,0.2142,0.218,0.2205,0.227,0.2307,0.2349,0.2399,0.243,0.2448,0.2473,0.2513,0.2532,0.2556,0.2569,0.2571,0.261,0.2605,0.2596,0.2575,0.2609,0.2624,0.2629,0.2555,0.2555,0.2554,0.2553,0,0,0.2112,0.2209,0.2216,0.2246,0.2325,0.2358,0.2409,0.2464,0.2488,0.2527,0.2556,0.2595,0.26,0.2612,0.2623,0.264,0.268,0.2631,0.2631,0.2645,0.2724,0.2736,0.2742,0.268,0.2681,0.2682,0.2727,0,0.2125,0.2195,0.2244,0.2302,0.2341,0.2394,0.2432,0.2483,0.2519,0.2557,0.2588,0.2618,0.262,0.2632,0.2654,0.2675,0.2694,0.2669,0.269,0.2691,0.2696,0.2749,0.2731,0.2771,0.2732,0.2733,0.2733,0,0.2139,0.2187,0.2241,0.2316,0.2336,0.237,0.2434,0.2476,0.2541,0.2569,0.2612,0.2634,0.2683,0.2667,0.2723,0.2708,0.2716,0.2726,0.2728,0.2725,0.2713,0.2729,0.2781,0.278,0.2741,0.274,0.274,0,0.2091,0.2181,0.2218,0.2246,0.2336,0.236,0.2403,0.247,0.2512,0.2575,0.2611,0.2661,0.2696,0.2718,0.2759,0.2739,0.2812,0.2785,0.2804,0.2804,0.2786,0.2783,0.2834,0.2811,0.2811,0.2811,0.2811,0,0.2085,0.2116,0.2195,0.2217,0.2253,0.2323,0.2363,0.2417,0.2495,0.254,0.2608,0.2658,0.271,0.2765,0.2776,0.2825,0.2831,0.2818,0.2823,0.2801,0.2799,0.2792,0.2771,0.2813,0.2813,0.2812,0.2812,0,0.2033,0.2088,0.2132,0.2212,0.2233,0.2255,0.2345,0.2376,0.2461,0.2527,0.2552,0.2671,0.2747,0.2804,0.2853,0.2857,0.2843,0.2897,0.2873,0.2874,0.287,0.2851,0.2764,0.2666,0.2916,0.2916,0.2917,0,0.2017,0.2033,0.2106,0.212,0.2156,0.2202,0.2232,0.2338,0.2384,0.253,0.256,0.2677,0.2757,0.2868,0.2909,0.2954,0.2869,0.2937,0.289,0.2883,0.2865,0.274,0.2653,0.2884,0.2884,0.2884,0.2884,0,0.1975,0.1994,0.2027,0.2058,0.2088,0.2127,0.2187,0.2231,0.235,0.2435,0.2545,0.2629,0.2782,0.2852,0.2943,0.2959,0.285,0.2941,0.2941,0.2856,0.2714,0.2618,0.2839,0.2886,0.2886,0.2886,0.2886,0.2885,0.1926,0.193,0.1961,0.1985,0.2017,0.204,0.205,0.214,0.2222,0.2345,0.2468,0.2597,0.2791,0.2937,0.2928,0.297,0.2863,0.2928,0.291,0.2786,0.2675,0.2904,0.2951,0.2951,0.2951,0.2951,0.2951,0,0.1852,0.1864,0.1886,0.1909,0.1911,0.1953,0.2005,0.2018,0.2088,0.2268,0.2375,0.2623,0.2769,0.29,0.3044,0.2983,0.2809,0.2916,0.275,0.2663,0.2905,0.2891,0.2919,0.2919,0.2919,0.2919,0.2919,0.2919,0.1812,0.1797,0.1811,0.1789,0.1805,0.1784,0.1793,0.1844,0.196,0.2139,0.2307,0.2468,0.2839,0.3147,0.3183,0.3078,0.282,0.2732,0.264,0.2878,0.2877,0.2876,0.2861,0.2882,0.2882,0.2319,0.2316,0.2313]},{"header":{"parameterUnit":"m.s-1","parameterCategory":2,"la1":30.2991,"la2":30.254,"lo1":-89.0895,"lo2":-89.0444,"dy":0.0017,"dx":0.0017,"nx":28,"ny":28,"refTime":"2026-02-24T09:00:00:Z","depth":"0","parameterNumber":3,"parameterNumberName":"V-component_of_CURRENTS"},"data":[0,0,0,0,0,0,0,0,0,0,0,0,0,0,0,0,0,0,0,0,0,0,0,0,0,0,0,0,0,0,0,0,0,0,0,0,0,0,0,0,0,0,0,0,0,0,0,0,0,0,0,0,0,0,0,0,0,0,-0.0222,-0.0223,0,-0.0301,-0.0302,-0.0303,-0.036,-0.036,-0.0361,-0.0361,-0.0446,-0.0448,-0.045,0,0,0,0,0,0,0,0,0,0,0,0,0,-0.0164,-0.0165,-0.0222,-0.0223,-0.0224,-0.0301,-0.0302,-0.0303,-0.036,-0.036,-0.0361,-0.0361,-0.0446,-0.0448,-0.045,0,0,0,0,0,0,0,0,0,0,0,0,0,-0.0211,-0.0165,-0.0222,-0.0261,-0.0266,-0.0301,-0.0302,-0.0304,-0.036,-0.036,-0.0361,-0.0362,-0.0445,-0.0448,-0.045,-0.0454,0,0,-0.0459,-0.046,0,0,0,0,0,0,0,0,-0.0208,-0.0213,-0.0255,-0.0259,-0.0264,-0.0321,-0.0313,-0.0354,-0.0359,-0.0324,-0.0361,-0.0362,-0.0404,-0.0411,-0.0424,-0.0458,-0.0461,-0.0459,-0.0461,-0.0462,-0.0463,0,0,0,0,0,0,0,-0.0205,-0.021,-0.0253,-0.0256,-0.0261,-0.0291,-0.0297,-0.0321,-0.0359,-0.0327,-0.0331,-0.034,-0.0407,-0.0421,-0.0426,-0.0462,-0.0459,-0.0461,-0.0463,-0.0464,-0.0517,-0.0517,0,0,0,0,0,0,-0.0192,-0.0207,-0.0251,-0.0256,-0.0237,-0.0291,-0.0299,-0.0302,-0.0359,-0.0369,-0.0339,-0.0342,-0.0416,-0.0423,-0.043,-0.0435,-0.0462,-0.0464,-0.0466,-0.0517,-0.0517,-0.0517,0,0,0,0,0,0,-0.019,-0.0195,-0.0248,-0.0233,-0.0242,-0.0291,-0.0294,-0.0303,-0.0317,-0.0368,-0.0378,-0.0344,-0.0417,-0.0426,-0.0451,-0.0439,-0.0466,-0.0468,-0.0518,-0.0517,-0.0517,-0.0448,0,0,0,0,0,0,-0.0188,-0.0193,-0.0187,-0.0232,-0.0243,-0.0259,-0.0294,-0.0304,-0.0321,-0.0326,-0.0375,-0.0384,-0.0418,-0.0446,-0.0453,-0.0444,-0.047,-0.0518,-0.0518,-0.0517,-0.0451,-0.0445,-0.0441,0,0,0,0,0,-0.0186,-0.0172,-0.0186,-0.0192,-0.0234,-0.0258,-0.0265,-0.0303,-0.0321,-0.0319,-0.0358,-0.0383,-0.0449,-0.0448,-0.0457,-0.0447,-0.0518,-0.0518,-0.0517,-0.0453,-0.0446,-0.0441,0,0,0,0,0,0,-0.0144,-0.0178,-0.0195,-0.0192,-0.0219,-0.0267,-0.0268,-0.0295,-0.0325,-0.0328,-0.038,-0.0391,-0.0409,-0.0437,-0.0436,-0.0462,-0.0487,-0.0488,-0.0435,-0.043,-0.0425,-0.04,-0.0473,0,0,0,0,0,-0.0131,-0.013,-0.0169,-0.0167,-0.0176,-0.022,-0.0234,-0.0258,-0.0293,-0.0307,-0.0344,-0.0382,-0.0413,-0.0428,-0.0459,-0.047,-0.0494,-0.047,-0.0465,-0.0461,-0.0447,-0.0479,-0.0476,-0.0515,-0.0515,-0.0515,0,0,-0.0115,-0.0133,-0.0133,-0.0158,-0.0181,-0.0184,-0.023,-0.0242,-0.0245,-0.031,-0.0323,-0.0365,-0.0413,-0.0429,-0.044,-0.0451,-0.0463,-0.046,-0.0456,-0.0445,-0.0478,-0.0474,-0.0471,-0.0515,-0.0515,-0.0515,0,0,-0.0078,-0.0096,-0.0081,-0.0097,-0.0123,-0.0151,-0.015,-0.0192,-0.0211,-0.023,-0.0279,-0.0312,-0.0357,-0.039,-0.0413,-0.0398,-0.0436,-0.041,-0.0364,-0.0395,-0.0392,-0.039,-0.0412,-0.0412,-0.0407,-0.0407,-0.0407,0,-0.0057,-0.0045,-0.008,-0.007,-0.0075,-0.013,-0.0114,-0.0141,-0.0187,-0.0195,-0.0223,-0.0293,-0.0337,-0.0359,-0.036,-0.0385,-0.0408,-0.0381,-0.0388,-0.0386,-0.0384,-0.0408,-0.0409,-0.0403,-0.0404,-0.0404,-0.0405,0,-0.001,-0.0001,0.0007,0.0002,-0.0007,-0.0003,-0.0042,-0.0053,-0.0086,-0.0118,-0.0147,-0.0212,-0.0252,-0.0276,-0.0316,-0.0327,-0.0348,-0.0377,-0.0398,-0.0376,-0.0403,-0.0405,-0.0399,-0.04,-0.0401,-0.0402,0,0,0.0038,0.0041,0.0045,0.0059,0.0034,0.0033,0.0031,0.0014,0.0018,-0.0037,-0.0038,-0.0108,-0.0148,-0.0177,-0.0233,-0.0266,-0.0284,-0.0312,-0.0316,-0.0325,-0.0346,-0.0367,-0.0372,-0.0317,-0.0317,-0.0317,-0.0367,0,0.0085,0.0129,0.0112,0.0149,0.0168,0.0127,0.0132,0.0108,0.0075,0.0058,-0.0014,-0.004,-0.0109,-0.0128,-0.0171,-0.0257,-0.0287,-0.0267,-0.0374,-0.0376,-0.0391,-0.0374,-0.0392,-0.0439,-0.037,-0.037,-0.037,0,0.0136,0.016,0.0211,0.023,0.0235,0.0244,0.0247,0.0242,0.02,0.0174,0.013,0.0072,0.0013,-0.0049,-0.0167,-0.0152,-0.0236,-0.0305,-0.0309,-0.0352,-0.0401,-0.0453,-0.0446,-0.0636,-0.0374,-0.0374,-0.0374,0,0.0192,0.0227,0.0275,0.028,0.0291,0.0306,0.0303,0.0278,0.0289,0.0244,0.0248,0.0162,0.0124,0.0012,-0.0133,-0.0149,-0.0263,-0.0305,-0.0399,-0.0402,-0.0448,-0.0454,-0.0629,-0.0378,-0.0377,-0.0377,-0.0377,0,0.0249,0.0284,0.0306,0.0331,0.0387,0.0366,0.0411,0.0391,0.0383,0.0406,0.0311,0.0311,0.0136,0.0047,-0.0092,-0.0245,-0.0231,-0.038,-0.0414,-0.0425,-0.0428,-0.0621,-0.0732,-0.0379,-0.0379,-0.0378,-0.0378,0,0.0301,0.0314,0.037,0.0402,0.0415,0.0451,0.0485,0.0515,0.0492,0.052,0.0514,0.0425,0.0304,0.0132,-0.0052,-0.0185,-0.0451,-0.0393,-0.0389,-0.042,-0.0685,-0.0791,-0.1004,-0.1082,-0.05,-0.0501,-0.0502,0,0.033,0.0367,0.0428,0.0467,0.0483,0.0533,0.057,0.0567,0.0605,0.0594,0.0619,0.0517,0.0458,0.0183,-0.0073,-0.0307,-0.0487,-0.0477,-0.0515,-0.0695,-0.0838,-0.0923,-0.098,-0.0552,-0.0553,-0.0554,-0.0555,0,0.0387,0.0407,0.0457,0.0543,0.0595,0.0659,0.0709,0.0763,0.0764,0.0787,0.0795,0.0748,0.0478,0.0229,-0.0097,-0.0279,-0.0631,-0.0501,-0.0698,-0.0896,-0.0992,-0.1084,-0.0521,-0.0562,-0.0561,-0.0561,-0.056,-0.056,0.0426,0.0474,0.0542,0.0624,0.0687,0.0772,0.0838,0.0896,0.0966,0.101,0.0943,0.0899,0.0514,0.0062,-0.0205,-0.0708,-0.0706,-0.0859,-0.097,-0.1038,-0.1126,-0.0569,-0.0643,-0.0643,-0.0643,-0.0643,-0.0643,0,0.0477,0.0532,0.0615,0.0714,0.0796,0.0817,0.0926,0.0996,0.1088,0.1122,0.1121,0.0882,0.0417,-0.0057,-0.0721,-0.1089,-0.1236,-0.1311,-0.1453,-0.1484,-0.0998,-0.1012,-0.1158,-0.1158,-0.1158,-0.1158,-0.1158,-0.1157,0.0504,0.0594,0.0642,0.0788,0.0858,0.0976,0.1046,0.1141,0.1199,0.1227,0.118,0.1099,0.0688,-0.0531,-0.1374,-0.1569,-0.1841,-0.1924,-0.2038,-0.1733,-0.1699,-0.1667,-0.1707,-0.1996,-0.1997,-0.2474,-0.2479,-0.2483]}],[{"header":{"parameterUnit":"m.s-1","parameterCategory":2,"la1":30.2991,"la2":30.254,"lo1":-89.0895,"lo2":-89.0444,"dy":0.0017,"dx":0.0017,"nx":28,"ny":28,"refTime":"2026-02-24T09:00:00:Z","depth":"2","parameterNumber":2,"parameterNumberName":"U-component_of_CURRENTS"},"data":[0,0,0,0,0,0,0,0,0,0,0,0,0,0,0,0,0,0,0,0,0,0,0,0,0,0,0,0,0,0,0,0,0,0,0,0,0,0,0,0,0,0,0,0,0,0,0,0,0,0,0,0,0,0,0,0,0,0,0.2171,0.2172,0,0.2253,0.2254,0.2254,0.2268,0.2268,0.2267,0.2267,0.2283,0.2284,0.2284,0,0,0,0,0,0,0,0,0,0,0,0,0,0.2037,0.2039,0.217,0.2172,0.2173,0.2253,0.2254,0.2255,0.2268,0.2267,0.2267,0.2267,0.2283,0.2284,0.2285,0,0,0,0,0,0,0,0,0,0,0,0,0,0.21,0.204,0.217,0.2193,0.2196,0.2253,0.2254,0.2255,0.2268,0.2267,0.2267,0.2267,0.2283,0.2284,0.2285,0.23,0,0,0.2288,0.2288,0,0,0,0,0,0,0,0,0.2097,0.2105,0.2188,0.2192,0.2195,0.2254,0.2213,0.2268,0.2268,0.2236,0.2267,0.2266,0.227,0.2272,0.2283,0.2301,0.2302,0.2288,0.2289,0.2289,0.2289,0,0,0,0,0,0,0,0.2092,0.2101,0.2199,0.219,0.2194,0.2204,0.2212,0.2224,0.225,0.2239,0.2241,0.2258,0.2271,0.2282,0.2284,0.2302,0.2288,0.2289,0.229,0.229,0.2353,0.2354,0,0,0,0,0,0,0.2092,0.2097,0.2196,0.2202,0.2149,0.2207,0.2216,0.2232,0.2251,0.2256,0.2258,0.2258,0.2281,0.2283,0.2284,0.2326,0.2289,0.229,0.2291,0.2352,0.2353,0.2354,0,0,0,0,0,0,0.2088,0.21,0.2193,0.2155,0.2168,0.221,0.2228,0.2234,0.2251,0.2268,0.227,0.227,0.2281,0.2283,0.2305,0.2325,0.2291,0.2292,0.2351,0.2352,0.2354,0.2394,0,0,0,0,0,0,0.2084,0.2098,0.2106,0.2155,0.217,0.2232,0.2229,0.2236,0.2264,0.2264,0.2279,0.2279,0.228,0.2303,0.2306,0.2326,0.2292,0.2349,0.2351,0.2353,0.2392,0.2397,0.2402,0,0,0,0,0,0.2079,0.2097,0.2105,0.2118,0.2181,0.2233,0.2241,0.2266,0.2265,0.2277,0.2288,0.2279,0.2317,0.2305,0.2308,0.2329,0.2348,0.2351,0.2353,0.2389,0.2396,0.2402,0,0,0,0,0,0,0.2042,0.2102,0.2112,0.2146,0.2188,0.2237,0.2258,0.2271,0.2291,0.2292,0.2294,0.2296,0.2324,0.2321,0.2308,0.2353,0.2331,0.2334,0.2358,0.2364,0.2369,0.2361,0.2293,0,0,0,0,0,0.2038,0.2068,0.2123,0.215,0.2174,0.2214,0.2237,0.2258,0.2287,0.2295,0.2306,0.2318,0.2336,0.2345,0.2358,0.2383,0.238,0.2398,0.2403,0.2407,0.2403,0.242,0.2426,0.2362,0.2362,0.2362,0,0,0.2031,0.207,0.2085,0.2145,0.2179,0.2219,0.2226,0.2271,0.2298,0.2294,0.2326,0.2337,0.2347,0.2378,0.2389,0.2377,0.2427,0.241,0.2414,0.2407,0.2423,0.2429,0.2434,0.2363,0.2363,0.2363,0,0,0.2041,0.2069,0.21,0.2137,0.2198,0.2227,0.2241,0.2294,0.231,0.2346,0.2351,0.2374,0.2398,0.2414,0.2423,0.2463,0.2454,0.2469,0.2488,0.2505,0.251,0.2515,0.2531,0.2536,0.2471,0.2471,0.2471,0,0.2029,0.2075,0.2116,0.2157,0.2189,0.223,0.2266,0.2297,0.2346,0.2361,0.2358,0.2406,0.2416,0.2454,0.247,0.2474,0.248,0.2465,0.2511,0.2515,0.2519,0.2534,0.254,0.2473,0.2473,0.2472,0.2472,0,0.2063,0.21,0.2125,0.2188,0.2224,0.2266,0.2316,0.2347,0.2369,0.2394,0.2434,0.2453,0.2477,0.249,0.2493,0.2531,0.2526,0.2516,0.2494,0.2528,0.2542,0.2547,0.2476,0.2475,0.2475,0.2474,0,0,0.2036,0.2129,0.2136,0.2165,0.2243,0.2275,0.2326,0.238,0.2404,0.2445,0.2475,0.2515,0.2521,0.2532,0.2543,0.256,0.26,0.2551,0.2551,0.2564,0.264,0.2644,0.265,0.2599,0.26,0.26,0.2642,0,0.205,0.2117,0.2164,0.2221,0.2259,0.2311,0.2349,0.2399,0.2436,0.2474,0.2505,0.2536,0.2539,0.2553,0.2574,0.2595,0.2613,0.2589,0.2607,0.2607,0.2605,0.2656,0.2456,0.2477,0.2647,0.2648,0.2649,0,0.2064,0.211,0.2163,0.2234,0.2255,0.2288,0.2351,0.2393,0.2458,0.2486,0.2529,0.2552,0.2601,0.2586,0.264,0.2626,0.2634,0.2643,0.2645,0.2635,0.2621,0.2469,0.2479,0.2657,0.2656,0.2655,0.2655,0,0.2019,0.2105,0.2142,0.2169,0.2255,0.228,0.2323,0.2389,0.2431,0.2494,0.2531,0.2579,0.2616,0.2635,0.2676,0.2657,0.2726,0.2699,0.271,0.271,0.2534,0.2518,0.2723,0.2723,0.2723,0.2723,0.2723,0,0.2014,0.2044,0.2121,0.2142,0.2178,0.2247,0.2287,0.234,0.2417,0.2463,0.2529,0.2578,0.2629,0.2682,0.2691,0.2734,0.2743,0.2723,0.2726,0.2546,0.2531,0.2676,0.267,0.2724,0.2724,0.2724,0.2723,0,0.1966,0.2018,0.2061,0.2139,0.216,0.2183,0.2273,0.2304,0.2388,0.2453,0.248,0.2594,0.2665,0.2719,0.2764,0.2764,0.2791,0.2796,0.2591,0.257,0.2753,0.2749,0.2804,0.2804,0.2805,0.2805,0.2806,0,0.195,0.1966,0.2038,0.2053,0.2089,0.2136,0.2167,0.2269,0.2315,0.2457,0.2487,0.2599,0.2669,0.2769,0.2775,0.2806,0.2825,0.2633,0.2562,0.2767,0.2764,0.2759,0.2754,0.2341,0.2338,0.2335,0.2333,0,0.1911,0.1931,0.1963,0.1995,0.2027,0.2065,0.2125,0.2167,0.2284,0.2363,0.2468,0.2542,0.2657,0.2617,0.2682,0.2666,0.2614,0.258,0.2837,0.2371,0.234,0.2335,0.2343,0.2307,0.231,0.2312,0.2313,0.2314,0.1865,0.187,0.1901,0.1927,0.196,0.1982,0.1991,0.2067,0.2142,0.2225,0.2357,0.2394,0.245,0.2457,0.2414,0.238,0.2548,0.2424,0.2428,0.2436,0.2394,0.2368,0.2332,0.2334,0.2337,0.2339,0.234,0,0.1791,0.1808,0.183,0.1853,0.1849,0.1899,0.1948,0.1932,0.1978,0.2079,0.2151,0.2029,0.2055,0.2099,0.2027,0.207,0.2002,0.198,0.1852,0.1882,0.1907,0.1833,0.1624,0.1621,0.1619,0.1616,0,0,0.1751,0.1735,0.1748,0.1724,0.1745,0.1709,0.1716,0.1712,0.1753,0.1754,0.1767,0.1932,0.2044,0.1782,0.1788,0.1685,0.1755,0.1628,0.2211,0.209,0.2111,0.2188,0.2113,0,0,0,0,0]},{"header":{"parameterUnit":"m.s-1","parameterCategory":2,"la1":30.2991,"la2":30.254,"lo1":-89.0895,"lo2":-89.0444,"dy":0.0017,"dx":0.0017,"nx":28,"ny":28,"refTime":"2026-02-24T09:00:00:Z","depth":"2","parameterNumber":3,"parameterNumberName":"V-component_of_CURRENTS"},"data":[0,0,0,0,0,0,0,0,0,0,0,0,0,0,0,0,0,0,0,0,0,0,0,0,0,0,0,0,0,0,0,0,0,0,0,0,0,0,0,0,0,0,0,0,0,0,0,0,0,0,0,0,0,0,0,0,0,0,-0.0109,-0.011,0,-0.0183,-0.0184,-0.0185,-0.0244,-0.0245,-0.0245,-0.0246,-0.0331,-0.0332,-0.0334,0,0,0,0,0,0,0,0,0,0,0,0,0,-0.006,-0.0061,-0.0109,-0.011,-0.0111,-0.0183,-0.0184,-0.0185,-0.0244,-0.0245,-0.0245,-0.0246,-0.033,-0.0332,-0.0334,0,0,0,0,0,0,0,0,0,0,0,0,0,-0.0102,-0.0061,-0.0109,-0.015,-0.0154,-0.0183,-0.0184,-0.0185,-0.0244,-0.0245,-0.0245,-0.0246,-0.033,-0.0332,-0.0334,-0.0331,0,0,-0.0342,-0.0343,0,0,0,0,0,0,0,0,-0.01,-0.0104,-0.0143,-0.0147,-0.0152,-0.0206,-0.0198,-0.0235,-0.0243,-0.0209,-0.0246,-0.0247,-0.0289,-0.0295,-0.0306,-0.0335,-0.0339,-0.0342,-0.0344,-0.0345,-0.0346,0,0,0,0,0,0,0,-0.0097,-0.0101,-0.0138,-0.0144,-0.0149,-0.0178,-0.0184,-0.0205,-0.0243,-0.0212,-0.0217,-0.0225,-0.0292,-0.0304,-0.0309,-0.034,-0.0342,-0.0345,-0.0346,-0.0347,-0.0396,-0.0396,0,0,0,0,0,0,-0.0085,-0.0098,-0.0136,-0.0141,-0.0128,-0.0178,-0.0185,-0.0187,-0.0243,-0.0252,-0.0224,-0.0228,-0.0299,-0.0306,-0.0312,-0.0321,-0.0345,-0.0347,-0.0349,-0.0396,-0.0396,-0.0396,0,0,0,0,0,0,-0.0083,-0.0087,-0.0133,-0.0122,-0.013,-0.0177,-0.0179,-0.0188,-0.0203,-0.0252,-0.0262,-0.023,-0.03,-0.0309,-0.0333,-0.0324,-0.0348,-0.0351,-0.0397,-0.0396,-0.0396,-0.0332,0,0,0,0,0,0,-0.0081,-0.0086,-0.008,-0.0121,-0.013,-0.0142,-0.0179,-0.0189,-0.0207,-0.0212,-0.026,-0.0269,-0.0302,-0.0329,-0.0336,-0.0328,-0.0353,-0.0397,-0.0396,-0.0396,-0.0334,-0.0329,-0.0325,0,0,0,0,0,-0.0079,-0.0065,-0.008,-0.0084,-0.0121,-0.0141,-0.0148,-0.0186,-0.0206,-0.0204,-0.0243,-0.0268,-0.0332,-0.0331,-0.0339,-0.0331,-0.0397,-0.0397,-0.0396,-0.0336,-0.033,-0.0325,0,0,0,0,0,0,-0.0043,-0.0071,-0.0088,-0.0084,-0.0108,-0.0151,-0.0153,-0.018,-0.0209,-0.0214,-0.0264,-0.0275,-0.0294,-0.032,-0.0319,-0.0346,-0.0369,-0.037,-0.032,-0.0315,-0.0311,-0.0289,-0.0355,0,0,0,0,0,-0.0031,-0.0027,-0.0062,-0.0059,-0.0067,-0.0109,-0.0121,-0.0145,-0.0178,-0.0192,-0.0229,-0.0267,-0.0296,-0.0312,-0.0341,-0.0351,-0.0376,-0.0353,-0.0348,-0.0344,-0.0332,-0.0366,-0.0363,-0.0394,-0.0394,-0.0394,0,0,-0.0017,-0.0031,-0.003,-0.0051,-0.0073,-0.0074,-0.0118,-0.013,-0.0133,-0.0195,-0.021,-0.0251,-0.0296,-0.0313,-0.0323,-0.0334,-0.0349,-0.0344,-0.034,-0.033,-0.0365,-0.0362,-0.036,-0.0394,-0.0394,-0.0394,0,0,0.0019,0.0003,0.0019,0.0005,-0.0019,-0.0044,-0.0044,-0.0083,-0.0103,-0.0122,-0.017,-0.0203,-0.0246,-0.0278,-0.0299,-0.0285,-0.0324,-0.0298,-0.0256,-0.0289,-0.0286,-0.0284,-0.0309,-0.031,-0.0295,-0.0294,-0.0294,0,0.0037,0.0051,0.002,0.0031,0.0026,-0.0026,-0.001,-0.0035,-0.0079,-0.0089,-0.0116,-0.0185,-0.0227,-0.0249,-0.0251,-0.0273,-0.0298,-0.0271,-0.0282,-0.028,-0.028,-0.0306,-0.0308,-0.0291,-0.0292,-0.0292,-0.0292,0,0.0083,0.0093,0.0102,0.0099,0.0091,0.0096,0.006,0.0047,0.0014,-0.0018,-0.0049,-0.0111,-0.015,-0.0173,-0.021,-0.0224,-0.0245,-0.0272,-0.0291,-0.0272,-0.0302,-0.0304,-0.0287,-0.0288,-0.0289,-0.029,0,0,0.0126,0.0134,0.0137,0.0152,0.013,0.013,0.0127,0.0111,0.0112,0.0057,0.0053,-0.0014,-0.0055,-0.0082,-0.0135,-0.017,-0.0192,-0.0214,-0.0217,-0.023,-0.026,-0.028,-0.0285,-0.0223,-0.0223,-0.0224,-0.0281,0,0.0171,0.0216,0.0202,0.0239,0.0258,0.0219,0.0223,0.0199,0.0165,0.0146,0.0075,0.0047,-0.0018,-0.0037,-0.0082,-0.0165,-0.0197,-0.0173,-0.0283,-0.0286,-0.03,-0.0289,-0.0267,-0.0317,-0.0285,-0.0285,-0.0286,0,0.022,0.0245,0.0296,0.0316,0.032,0.0329,0.0329,0.0324,0.028,0.0253,0.0207,0.015,0.009,0.0032,-0.0088,-0.007,-0.0153,-0.0221,-0.0226,-0.0266,-0.0311,-0.0333,-0.0325,-0.0291,-0.0291,-0.029,-0.029,0,0.0272,0.0308,0.0355,0.0361,0.0374,0.0386,0.0383,0.0356,0.0365,0.0318,0.0318,0.0232,0.0192,0.0081,-0.0061,-0.0075,-0.0193,-0.0231,-0.0324,-0.0326,-0.0339,-0.0342,-0.0307,-0.0307,-0.0306,-0.0306,-0.0306,0,0.0326,0.036,0.0384,0.0408,0.0462,0.0442,0.0482,0.0462,0.0451,0.047,0.0376,0.0373,0.0201,0.0111,-0.0025,-0.0178,-0.0166,-0.0308,-0.0341,-0.0317,-0.0317,-0.0321,-0.0322,-0.0308,-0.0308,-0.0308,-0.0307,0,0.0373,0.0388,0.0443,0.0475,0.0488,0.0521,0.0553,0.058,0.0554,0.0577,0.057,0.0479,0.0356,0.0188,0.0004,-0.0124,-0.0273,-0.033,-0.0286,-0.0313,-0.0393,-0.039,-0.0436,-0.0438,-0.0439,-0.0439,-0.044,0,0.0401,0.0437,0.0497,0.0535,0.0551,0.0598,0.0633,0.0629,0.0663,0.0646,0.0668,0.0563,0.05,0.0226,-0.0018,-0.0247,-0.0278,-0.0378,-0.0405,-0.0378,-0.0405,-0.0401,-0.0397,-0.0399,-0.0399,-0.0399,-0.0399,0,0.0455,0.0475,0.0524,0.0607,0.0656,0.0718,0.0765,0.0816,0.0815,0.0832,0.0833,0.0782,0.0517,0.0282,-0.0036,-0.0196,-0.0342,-0.0391,-0.0374,-0.0368,-0.0347,-0.0372,-0.0369,-0.0402,-0.0401,-0.0401,-0.0401,-0.0401,0.0493,0.0538,0.0604,0.0684,0.0744,0.0825,0.0889,0.094,0.1003,0.1031,0.0964,0.0886,0.0616,0.0208,-0.007,-0.0364,-0.0357,-0.0456,-0.0454,-0.0451,-0.0435,-0.0417,-0.0481,-0.0481,-0.0482,-0.0482,-0.0482,0,0.0543,0.0594,0.0674,0.077,0.0849,0.0868,0.0973,0.1036,0.1117,0.1115,0.11,0.0854,0.0567,0.0261,-0.0173,-0.0432,-0.0453,-0.0514,-0.0477,-0.0473,-0.0469,-0.0453,-0.0505,-0.0506,-0.0507,-0.0507,0,0,0.0569,0.0657,0.0702,0.0843,0.091,0.1027,0.1094,0.1174,0.1204,0.1216,0.1159,0.1037,0.066,0.0351,-0.0007,-0.0254,-0.0306,-0.0309,-0.0263,-0.0174,-0.0168,-0.0411,-0.0379,0,0,0,0,0]}],[{"header":{"parameterUnit":"m.s-1","parameterCategory":2,"la1":30.2991,"la2":30.254,"lo1":-89.0895,"lo2":-89.0444,"dy":0.0017,"dx":0.0017,"nx":28,"ny":28,"refTime":"2026-02-24T09:00:00:Z","depth":"4","parameterNumber":2,"parameterNumberName":"U-component_of_CURRENTS"},"data":[0,0,0,0,0,0,0,0,0,0,0,0,0,0,0,0,0,0,0,0,0,0,0,0,0,0,0,0,0,0,0,0,0,0,0,0,0,0,0,0,0,0,0,0,0,0,0,0,0,0,0,0,0,0,0,0,0,0,0.1201,0.1201,0,0.1228,0.1229,0.1229,0.1306,0.1307,0.1308,0.1309,0.1394,0.1395,0.1396,0,0,0,0,0,0,0,0,0,0,0,0,0,0.1199,0.1199,0.1201,0.1201,0.1201,0.1228,0.1229,0.123,0.1306,0.1307,0.1309,0.131,0.1393,0.1395,0.1396,0,0,0,0,0,0,0,0,0,0,0,0,0,0.1217,0.1199,0.1201,0.1237,0.124,0.1227,0.1229,0.123,0.1306,0.1307,0.1309,0.131,0.1393,0.1395,0.1397,0.1377,0,0,0.1402,0.1403,0,0,0,0,0,0,0,0,0.1216,0.1218,0.1232,0.1235,0.1238,0.1259,0.1258,0.128,0.1305,0.1288,0.1309,0.1311,0.1348,0.1354,0.1365,0.1381,0.1385,0.1403,0.1404,0.1405,0.1405,0,0,0,0,0,0,0,0.1214,0.1217,0.1219,0.1231,0.1235,0.1245,0.125,0.1263,0.1316,0.129,0.1294,0.1285,0.1352,0.1363,0.1367,0.1386,0.1402,0.1404,0.1405,0.1406,0.1509,0.1511,0,0,0,0,0,0,0.1196,0.1215,0.1218,0.1219,0.1222,0.1243,0.1249,0.1256,0.1314,0.1322,0.1284,0.1288,0.1359,0.1365,0.137,0.1462,0.1404,0.1406,0.1407,0.1508,0.151,0.1512,0,0,0,0,0,0,0.1196,0.1197,0.1217,0.1211,0.1214,0.1241,0.1249,0.1256,0.1304,0.1308,0.1319,0.1328,0.136,0.1368,0.1421,0.1461,0.1407,0.1409,0.1506,0.1508,0.1511,0.1573,0,0,0,0,0,0,0.1197,0.1197,0.1218,0.1211,0.1213,0.1238,0.1247,0.1255,0.1291,0.1299,0.1348,0.1356,0.1362,0.1418,0.1423,0.1463,0.141,0.1504,0.1507,0.151,0.1569,0.1577,0.1585,0,0,0,0,0,0.1197,0.1206,0.122,0.122,0.1235,0.1238,0.1243,0.127,0.1292,0.1321,0.1357,0.1356,0.1441,0.1421,0.1426,0.1468,0.1502,0.1506,0.151,0.1566,0.1576,0.1584,0,0,0,0,0,0,0.1214,0.1214,0.1229,0.124,0.1253,0.125,0.1268,0.1288,0.1339,0.1354,0.1373,0.1383,0.1448,0.1445,0.1423,0.1506,0.1472,0.1477,0.1513,0.1523,0.153,0.1519,0.1412,0,0,0,0,0,0.1224,0.1238,0.1238,0.1251,0.1256,0.1272,0.1283,0.1302,0.1326,0.1353,0.1387,0.1422,0.1458,0.1482,0.1509,0.1548,0.1541,0.1579,0.1587,0.1593,0.1588,0.1617,0.1627,0.1523,0.1523,0.1523,0,0,0.1232,0.1232,0.1242,0.1256,0.1266,0.1281,0.1287,0.1307,0.134,0.135,0.1423,0.1453,0.1476,0.153,0.1558,0.1538,0.1622,0.1598,0.1603,0.1594,0.1622,0.1632,0.1641,0.1526,0.1525,0.1525,0,0,0.1235,0.1257,0.1269,0.1282,0.1296,0.1304,0.1319,0.1343,0.1383,0.1436,0.1462,0.1509,0.1564,0.1587,0.1603,0.1663,0.1664,0.169,0.1719,0.1748,0.1757,0.1764,0.1775,0.1783,0.1691,0.1691,0.1691,0,0.125,0.1264,0.1274,0.1287,0.1301,0.132,0.1342,0.1374,0.1422,0.146,0.147,0.157,0.1583,0.1649,0.1674,0.168,0.1699,0.1683,0.1758,0.1765,0.1771,0.178,0.1788,0.1695,0.1694,0.1694,0.1694,0,0.1254,0.1281,0.1284,0.1313,0.1336,0.1353,0.1385,0.1434,0.1479,0.1512,0.1604,0.163,0.1688,0.1707,0.1708,0.1775,0.1776,0.1767,0.1732,0.1785,0.1792,0.1799,0.17,0.1698,0.1697,0.1697,0,0,0.1248,0.1284,0.1292,0.1317,0.1355,0.137,0.143,0.1488,0.1541,0.1602,0.1674,0.1732,0.1761,0.178,0.1802,0.1822,0.1876,0.1822,0.1822,0.1828,0.1948,0.1848,0.1845,0.1899,0.1901,0.1902,0.1936,0,0.1256,0.1285,0.1309,0.1355,0.1372,0.1419,0.1475,0.1536,0.1595,0.167,0.1716,0.179,0.1788,0.1831,0.1855,0.1876,0.1898,0.1867,0.1898,0.1898,0.1799,0.1851,0.1907,0.194,0.1942,0.1943,0.1944,0,0.1253,0.1276,0.132,0.1384,0.14,0.1442,0.1538,0.1592,0.1688,0.1741,0.1817,0.1858,0.1918,0.1898,0.1958,0.1952,0.1955,0.1956,0.1958,0.1843,0.1811,0.1875,0.1956,0.1955,0.1954,0.1953,0.1952,0,0.123,0.1285,0.1326,0.1345,0.1418,0.1471,0.1526,0.1622,0.1684,0.1794,0.1847,0.1926,0.1975,0.2,0.2011,0.2002,0.2059,0.2037,0.1948,0.1941,0.1991,0.1983,0.2069,0.2069,0.2068,0.2068,0.2068,0,0.1211,0.1246,0.1325,0.1344,0.1413,0.1474,0.1563,0.1633,0.1738,0.1804,0.1889,0.1943,0.2008,0.2048,0.2042,0.2017,0.2087,0.1955,0.1946,0.2018,0.2012,0.1996,0.1987,0.207,0.2069,0.2069,0.2069,0,0.1166,0.1217,0.1266,0.1361,0.1399,0.1452,0.1574,0.163,0.1743,0.183,0.1871,0.1978,0.2026,0.2068,0.2102,0.2045,0.2033,0.2007,0.2085,0.2079,0.1885,0.188,0.1899,0.1896,0.1893,0.1891,0.1889,0,0.1139,0.116,0.1268,0.1305,0.1353,0.1441,0.1498,0.1622,0.1676,0.183,0.1857,0.1958,0.2009,0.1974,0.2027,0.2017,0.1994,0.1973,0.1917,0.1881,0.187,0.1869,0.1867,0.1885,0.1884,0.1884,0.1883,0,0.1084,0.1139,0.118,0.1258,0.1325,0.1386,0.1478,0.151,0.1644,0.1758,0.1801,0.1831,0.1883,0.1901,0.1918,0.1904,0.1976,0.1944,0.1949,0.1896,0.1864,0.1856,0.1857,0.1874,0.1875,0.1876,0.1876,0,0.1049,0.1065,0.1133,0.1192,0.1271,0.1308,0.1367,0.1426,0.1496,0.1659,0.1666,0.1767,0.1861,0.1844,0.1855,0.1843,0.1807,0.1738,0.1753,0.1764,0.1705,0.1643,0.158,0,0,0,0,0,0.0999,0.101,0.106,0.1116,0.119,0.1233,0.134,0.1399,0.1525,0.1516,0.1589,0.1627,0.1656,0.1708,0.1666,0.1797,0.1815,0.1742,0.1744,0.1822,0.1833,0.1776,0,0,0,0,0,0,0.0965,0.1005,0.1026,0.104,0.1062,0.1128,0.1188,0.1274,0.1277,0.1409,0.1429,0.1529,0.1576,0.1654,0.1631,0.1648,0.1618,0.1808,0.1805,0.1816,0.1826,0.1834,0.178,0,0,0,0,0]},{"header":{"parameterUnit":"m.s-1","parameterCategory":2,"la1":30.2991,"la2":30.254,"lo1":-89.0895,"lo2":-89.0444,"dy":0.0017,"dx":0.0017,"nx":28,"ny":28,"refTime":"2026-02-24T09:00:00:Z","depth":"4","parameterNumber":3,"parameterNumberName":"V-component_of_CURRENTS"},"data":[0,0,0,0,0,0,0,0,0,0,0,0,0,0,0,0,0,0,0,0,0,0,0,0,0,0,0,0,0,0,0,0,0,0,0,0,0,0,0,0,0,0,0,0,0,0,0,0,0,0,0,0,0,0,0,0,0,0,0.0187,0.0187,0,0.0173,0.0172,0.0172,0.0139,0.0139,0.0138,0.0138,0.0088,0.0087,0.0086,0,0,0,0,0,0,0,0,0,0,0,0,0,0.0158,0.0159,0.0187,0.0187,0.0187,0.0173,0.0172,0.0172,0.0139,0.0139,0.0138,0.0138,0.0088,0.0087,0.0086,0,0,0,0,0,0,0,0,0,0,0,0,0,0.0156,0.0159,0.0187,0.0172,0.0171,0.0173,0.0172,0.0172,0.0139,0.0139,0.0138,0.0138,0.0089,0.0087,0.0086,0.0085,0,0,0.0081,0.008,0,0,0,0,0,0,0,0,0.0156,0.0157,0.0174,0.0173,0.0172,0.0161,0.0144,0.0142,0.0139,0.0147,0.0138,0.0138,0.0112,0.0108,0.0101,0.0082,0.008,0.0081,0.008,0.0079,0.0078,0,0,0,0,0,0,0,0.0156,0.0157,0.0177,0.0175,0.0173,0.0157,0.0156,0.0143,0.0128,0.0146,0.0145,0.015,0.011,0.0103,0.01,0.008,0.0081,0.0079,0.0078,0.0078,0.0038,0.0038,0,0,0,0,0,0,0.0169,0.0157,0.0178,0.0177,0.0168,0.0159,0.0157,0.0162,0.0129,0.0125,0.015,0.0149,0.0106,0.0102,0.0098,0.0086,0.0079,0.0077,0.0077,0.0038,0.0038,0.0038,0,0,0,0,0,0,0.0168,0.0171,0.0178,0.017,0.017,0.016,0.0165,0.0162,0.0153,0.0134,0.0128,0.0146,0.0105,0.01,0.0085,0.0084,0.0077,0.0075,0.0038,0.0038,0.0038,0.0069,0,0,0,0,0,0,0.0167,0.017,0.0174,0.0171,0.0172,0.0181,0.0166,0.0162,0.0159,0.0156,0.0128,0.0123,0.0105,0.0088,0.0084,0.0082,0.0074,0.0038,0.0038,0.0038,0.0068,0.007,0.0071,0,0,0,0,0,0.0166,0.018,0.0174,0.0177,0.0178,0.0182,0.018,0.0168,0.0159,0.0158,0.0137,0.0123,0.0083,0.0087,0.0082,0.008,0.0039,0.0038,0.0038,0.0067,0.0069,0.0071,0,0,0,0,0,0,0.017,0.0178,0.0172,0.0187,0.0184,0.0178,0.0183,0.0171,0.0154,0.0153,0.0125,0.0119,0.0103,0.0089,0.0093,0.0067,0.0057,0.0056,0.0081,0.0083,0.0085,0.0087,0.0073,0,0,0,0,0,0.0174,0.0186,0.0185,0.0198,0.02,0.019,0.0189,0.0182,0.0171,0.0163,0.0143,0.0121,0.0099,0.0089,0.007,0.0061,0.0032,0.0055,0.0057,0.0058,0.0056,0.001,0.0007,0.0037,0.0037,0.0037,0,0,0.018,0.0187,0.0193,0.0199,0.0199,0.0205,0.0187,0.0195,0.0194,0.0161,0.0153,0.0127,0.0097,0.0083,0.0075,0.0071,0.0035,0.0058,0.006,0.0056,0.0009,0.0006,0.0003,0.0037,0.0037,0.0037,0,0,0.0204,0.0205,0.0223,0.0223,0.023,0.0222,0.0225,0.0218,0.0208,0.0199,0.0171,0.0145,0.0121,0.0094,0.0078,0.0078,0.0045,0.0072,0.0084,0.004,0.0037,0.0034,-0.0002,-0.0008,0.0075,0.0075,0.0075,0,0.021,0.0232,0.0227,0.0243,0.0249,0.0231,0.0246,0.0234,0.022,0.0209,0.0202,0.0147,0.0125,0.0092,0.0091,0.0081,0.0052,0.0081,0.0042,0.0038,0.0034,-0.0002,-0.0009,0.0076,0.0076,0.0076,0.0076,0,0.0245,0.026,0.0273,0.0285,0.0286,0.0299,0.0286,0.0278,0.0264,0.0245,0.0212,0.0176,0.0141,0.0128,0.011,0.0073,0.0059,0.0048,0.0038,0.0033,-0.0004,-0.0013,0.0078,0.0078,0.0077,0.0077,0,0,0.0264,0.0292,0.0296,0.0308,0.031,0.0316,0.0313,0.03,0.0293,0.0264,0.0244,0.0199,0.0171,0.015,0.0118,0.0078,0.0031,0.0056,0.0053,0.0023,-0.0066,-0.0057,-0.0065,0.0011,0.0009,0.0008,-0.008,0,0.0292,0.0332,0.0333,0.0362,0.038,0.0361,0.0358,0.0341,0.0317,0.0292,0.024,0.0213,0.0182,0.0166,0.0119,0.0054,0.0009,0.0056,-0.006,-0.0063,-0.0053,-0.0075,0.0004,-0.0087,-0.0089,-0.009,-0.0091,0,0.0323,0.0347,0.0386,0.0403,0.0408,0.0416,0.0405,0.04,0.0355,0.0335,0.0289,0.0247,0.0186,0.0163,0.0043,0.0073,0.0005,-0.0048,-0.0053,-0.0062,-0.007,-0.0084,-0.0107,-0.0106,-0.0104,-0.0103,-0.0102,0,0.0344,0.038,0.0414,0.0422,0.0437,0.0444,0.0442,0.0412,0.0412,0.0362,0.0352,0.0266,0.0232,0.0131,0.0028,0.003,-0.0106,-0.0116,-0.0176,-0.0176,-0.0171,-0.0167,-0.021,-0.021,-0.021,-0.021,-0.021,0,0.0372,0.0399,0.043,0.045,0.0483,0.0476,0.0493,0.0476,0.0453,0.0452,0.0379,0.0355,0.0222,0.0132,0.0029,-0.0095,-0.0108,-0.0182,-0.0203,-0.0154,-0.0148,-0.0176,-0.0171,-0.0213,-0.0212,-0.0212,-0.0211,0,0.0395,0.0415,0.0458,0.0486,0.05,0.0521,0.0543,0.0548,0.0523,0.0518,0.0508,0.0416,0.03,0.0165,0.0001,-0.008,-0.0205,-0.0248,-0.0181,-0.0195,-0.0248,-0.024,-0.0328,-0.0329,-0.0329,-0.033,-0.033,0,0.041,0.0438,0.0491,0.052,0.0539,0.0572,0.0594,0.0587,0.0596,0.0556,0.0555,0.0449,0.0373,0.0154,0.0004,-0.0196,-0.0223,-0.0288,-0.0279,-0.0251,-0.0262,-0.0254,-0.0246,-0.0331,-0.0331,-0.0331,-0.0331,0,0.0439,0.046,0.0496,0.056,0.0598,0.0638,0.0668,0.0683,0.0671,0.0652,0.0594,0.0474,0.034,0.0162,0.0008,-0.0136,-0.0247,-0.0294,-0.0294,-0.0286,-0.0255,-0.0263,-0.0255,-0.0333,-0.0332,-0.0332,-0.0332,0,0.0458,0.0487,0.0538,0.0592,0.0645,0.0687,0.07,0.0707,0.0713,0.0671,0.0648,0.0498,0.0406,0.0192,0.0048,-0.009,-0.013,-0.0174,-0.0182,-0.0182,-0.0112,-0.005,-0.0089,0,0,0,0,0,0.0475,0.0511,0.0564,0.0624,0.0676,0.0712,0.0743,0.0747,0.0741,0.0713,0.0683,0.0559,0.0337,0.0234,0.0098,0.0032,-0.0157,-0.0134,-0.0212,-0.0341,-0.0339,-0.0281,0,0,0,0,0,0,0.0485,0.0539,0.0567,0.0642,0.0691,0.0749,0.0775,0.0771,0.075,0.0722,0.0607,0.0535,0.0321,0.0428,0.0103,0.0057,-0.0011,-0.0241,-0.0244,-0.0342,-0.034,-0.0339,-0.0279,0,0,0,0,0]}]]